Regional Weather Roundup
Issued by NWS Raleigh/Durham, NC

Home | Current Version | Previous Version | Text Only | Print | Product List | Glossary On
Versions: 1 2 3 4 5 6 7 8 9 10 11 12 13 14 15 16 17 18 19 20 21 22 23 24 25 26 27 28
000
ASUS42 KRAH 301710
RWRRAH
NORTH CAROLINA WEATHER ROUNDUP
NATIONAL WEATHER SERVICE RALEIGH NC
100 PM EDT THU OCT 30 2014

NOTE: "FAIR" INDICATES FEW OR NO CLOUDS BELOW 12,000 FEET WITH NO
SIGNIFICANT WEATHER AND/OR OBSTRUCTIONS TO VISIBILITY.

NCZ001-053-055-056-065-067-301800-
WESTERN NORTH CAROLINA

CITY           SKY/WX    TMP DP  RH WIND       PRES   REMARKS
ASHEVILLE      SUNNY     58  33  39 N8        30.06F
JEFFERSON      SUNNY     53  25  33 W6        30.05F
MORGANTON      SUNNY     61  35  38 SW3       30.09F
HICKORY        SUNNY     61  37  41 CALM      30.05F
RUTHERFORDTON  SUNNY     62  37  39 W3        30.06F
MOUNT AIRY     SUNNY     60  37  42 N7        30.07F
BOONE          SUNNY     53  22  30 NW15      30.06F
$$

NCZ021-022-025-041-071-084-088-301800-
CENTRAL NORTH CAROLINA

CITY           SKY/WX    TMP DP  RH WIND       PRES   REMARKS
CHARLOTTE      SUNNY     65  33  30 N7        30.05F
GREENSBORO     SUNNY     62  37  39 N8        30.04F
WINSTON-SALEM  SUNNY     62  34  35 VRB3      30.06F
RALEIGH-DURHAM MOSUNNY   65  40  39 NE6       30.03F
FORT BRAGG     SUNNY     67  45  45 N8        30.01F
FAYETTEVILLE   SUNNY     69  44  40 N10       30.01F
BURLINGTON     SUNNY     64  36  35 CALM      30.04F
LAURINBURG     SUNNY     68  42  38 N9G17     30.02F
$$

NCZ011-015-027-028-043-044-047-080-103-301800-
NORTHEASTERN NORTH CAROLINA

CITY           SKY/WX    TMP DP  RH WIND       PRES   REMARKS
ROCKY MT-WILSO SUNNY     65  46  50 NE12      30.03F
GREENVILLE     SUNNY     64  46  52 NE13      30.04F
WASHINGTON     MOSUNNY   62  49  62 NE7       30.02F
ELIZABETH CITY MOSUNNY   68  48  48 N10       30.01F
MANTEO         CLOUDY    64  50  60 NE10      30.00F
CAPE HATTERAS  CLOUDY    66  54  65 NE12G22   29.97F
$$

NCZ078-087-090-091-093-098-101-301800-
SOUTHEASTERN NORTH CAROLINA

CITY           SKY/WX    TMP DP  RH WIND       PRES   REMARKS
LUMBERTON      SUNNY     70  47  43 N9        30.01F
GOLDSBORO      SUNNY     66  50  55 NE13      30.00F
KINSTON        SUNNY     66  48  52 N9        30.02F
KENANSVILLE    SUNNY     66  44  46 NE6       30.02F
NEW BERN       MOSUNNY   65  51  60 NE12      30.01F
CHERRY POINT   PTSUNNY   65  53  65 NE9       30.00F
BEAUFORT       MOSUNNY   67  54  63 NE12G21   29.98F
JACKSONVILLE   SUNNY     67  50  54 NE13      29.99F
WILMINGTON     CLOUDY    67  51  56 NE10      29.98F
$$




USA.gov is the U.S. government's official web portal to all federal, state and local government web resources and services.